Sheriff Indiana Allen County Courthouse Allen County Sheriff's Department - Ken Fries, Sheriff | Allen County, Indiana
Sheriff Ken Fries

Activity Logs

Activity Log for September 26, 2013

Back to List of Log Dates


Incident Time Nature Address
13A043249 00:38:36 123 Leo/cedarvi 150xx Sr 1
13A043250 01:28:51 15 Assist 125xx Lima Rd & Fort Recovery Rd
13A043251 03:33:55 129 63xx Prize St & Portola Ave
13A043253 05:49:58 30 Traffic Stop 312xx I 69 Nb
13A043254 06:01:21 123 Leo/cedarvi 150xx Sr 1
13A043255 06:07:01 122 Huntertown 150xx Old Lima Rd
13A043256 06:29:51 25 Pd Accident 48xx Bull Rapids Rd & Ash St
13A043257 06:34:09 30 Traffic Stop 2xx Rudisill Blvd E & Clinton St S
13A043258 06:38:27 40a Audible 43xx Meyer Rd
13A043259 06:49:26 11 Pick Up Pris 1 Oc
13A043260 07:04:34 129 1 Oc
13A043261 07:08:17 30 Traffic Stop 121xx Burning Tree Rd & Thornapple
13A043262 07:24:03 911 Hang Up 39xx Homestead Rd
13A043263 08:12:56 26 Pi Accident 319xx I 69 Nb
13A043264 08:15:55 911 Hang Up 65xx Wayne Trace
13A043265 08:20:12 11 Pick Up Pris 7xx Broadway
13A043266 08:24:34 11 Pick Up Pris 1 Oc
13A043267 08:38:09 80p Serving Po 64xx Calhoun St S
13A043268 08:40:59 14s Serving War 15xx Spring St
13A043269 08:44:42 108 Followup 43xx Homestead Rd
13A043270 08:50:13 80p Serving Po 45xx Kenilworth St
13A043271 08:54:05 30 Traffic Stop 100xx Lima Rd & Northbrook Blvd
13A043272 08:56:19 14s Serving War 15xx Crescent Ave
13A043276 08:59:03 23,35 Vand Veh 107xx Us 27 S
13A043274 08:59:09 911 Hang Up 23xx Hillegas Rd
13A043273 08:59:39 30 Traffic Stop 8xx Coliseum Blvd E & Clinton St N
13A043275 09:04:39 80p Serving Po 45xx Weisser Park Ave
13A043277 09:12:37 14s Serving War 48xx Pleasant Valley Dr
13A043278 09:22:14 80p Serving Po 56xx River Run Trl
13A043279 09:25:04 129 81xx Amherst Dr
13A043280 09:31:16 14s Serving War 1xx Cook Rd W
13A043281 09:34:53 14s Serving War 1xx Superior St E
13A043283 09:36:58 63 Contact 45xx Park St
13A043282 09:39:06 14s Serving War 4xx Calhoun St S
13A043284 09:54:22 14s Serving War 32xx Fairfield Ave
13A043285 10:10:18 17 Motor Check 106xx Majic Port Ln
13A043286 10:32:19 14s Serving War 1xx Berry St W
13A043287 10:35:23 46 Domestic 41xx Horman Rd
13A043290 10:41:29 17 Motor Check 106xx Majic Port Ln
13A043288 10:56:14 80p Serving Po 21xx Miner St
13A043289 10:56:54 129 85xx Seiler Rd
13A043291 11:06:18 80p Serving Po 28xx Harrison St S
13A043292 11:11:18 14s Serving War 2xx Wildwood Ave E
13A043293 11:11:30 17 Motor Check 13xx Gump Rd E
13A043294 11:20:15 14s Serving War 24xx Hubertus Ave
13A043295 11:26:28 108 Followup 4xx Calhoun St S
13A043297 11:33:58 48,36 237xx Flatrock Rd
13A043296 11:35:58 80p Serving Po 106xx Seiler Rd
13A043298 11:51:31 33 Disabled Veh 159xx Tonkel Rd
13A043299 12:03:08 30 Traffic Stop 62xx State Blvd E & Maplecrest Rd
13A043300 12:03:44 30 Traffic Stop 56xx Yohne Rd & Smith Rd
13A043301 12:12:27 911 Hang Up 107xx Us 27 S
13A043302 12:27:36 16 Pick Up Item 4xx Calhoun St S
13A043303 13:09:07 80p Serving Po 45xx Bowser Ave
13A043304 13:11:28 108 Followup 100xx Wheatfield Ln
13A043305 13:18:26 30 Traffic Stop 51xx Meijer Dr & Maysville Rd
13A043306 13:24:07 108 Followup 4xx Calhoun St S
13A043307 13:32:26 108 Followup 1 Main St E
13A043308 13:36:43 30 Traffic Stop 47xx Washington Blvd E & Meyer Rd
13A043309 13:39:17 30 Traffic Stop 61xx Sr 930 E & Adams Center Rd
13A043323 13:45:57 17 Motor Check 111xx Hoffman Rd
13A043311 13:49:13 17 Motor Check 100xx Wheatfield Ln
13A043310 13:50:13 14s Serving War 2xx Lincoln Hwy E
13A043312 13:53:47 14s Serving War 75xx Knightswood Dr
13A043313 13:54:21 30 Traffic Stop 4xx High St & Wells St
13A043314 14:01:41 30 Traffic Stop 51xx Meijer Dr & Maysville Rd
13A043315 14:03:19 14s Serving War 75xx Lakeridge Dr
13A043316 14:07:27 30 Traffic Stop 63xx Us 30 W & Flaugh Rd
13A043317 14:09:03 14s Serving War 8xx Belle Ave
13A043318 14:14:44 65t Suicide Thr 1xx Mulberry St
13A043319 14:20:39 14s Serving War 8xx Madison St
13A043320 14:24:13 14s Serving War 7xx Columbia Ave
13A043321 14:34:43 33 Disabled Veh 63xx Us 30 W & Flaugh Rd
13A043322 14:35:28 14s Serving War 13xx Taylor St
13A043324 14:46:45 30 Traffic Stop 115xx Kress Rd & Lower Huntington
13A043326 14:56:20 96 Battery 172xx Woodburn Rd
13A043325 14:57:10 108 Followup 39xx Bass Rd
13A043327 14:58:41 30 Traffic Stop 71xx Bass Rd & Hadley Rd N
13A043328 15:06:11 30 Traffic Stop 37xx Parnell Ave & Spy Run Ave Ext
13A043329 15:08:50 30 Traffic Stop 62xx St Joe Center Rd & Maplecrest
13A043330 15:17:21 14s Serving War 15xx Wells St
13A043331 15:17:38 14s Serving War 70xx Elmbrook Dr
13A043332 15:22:53 108 Followup 50xx Illinois Rd
13A043333 15:25:44 30 Traffic Stop 76xx Bass Rd
13A043334 15:50:13 17 Motor Check 145xx Hand Rd
13A043335 15:54:22 22n Child Negle 22xx Main St
13A043336 15:55:39 108 Followup 12xx Goshen Ave
13A043337 15:56:58 46 Domestic 106xx Mill Race Run
13A043338 16:25:21 50,attempted 6xx Victoria Station Way
13A043339 16:35:08 34 Traff Hazard 133xx Redding Dr
13A043340 16:39:25 14s Serving War 13xx Taylor St
13A043341 16:43:21 43 Disturbance 88xx St Joe Rd
13A043343 16:52:04 46 Domestic 17xx Freedom Dr
13A043342 16:55:03 15 Assist 193xx Tonkel Rd & Northcounty Line
13A043344 16:59:21 14s Serving War 1xx Dewald St E
13A043352 17:01:26 17 Motor Check 46xx Sr 1
13A043345 17:11:19 30 Traffic Stop 139xx Page Rd & Grabill Rd
13A043346 17:13:58 43 Disturbance 73xx Engle Rd & Jefferson Blvd W
13A043348 17:22:18 1 Meet 125xx Sr 1
13A043347 17:23:07 46 Domestic 125xx Sonoma Dr
13A043350 17:30:42 48 Suspicious 55xx Pine Green Cv
13A043351 17:34:19 14s Serving War 10xx Rivermet Ave
13A043349 17:35:04 43 Disturbance 73xx Engle Rd & Jefferson Blvd W
13A043353 17:54:40 122 Huntertown 150xx Old Lima Rd
13A043354 17:55:10 14s Serving War 77xx Evanwood Ct
13A043355 17:59:00 14s Serving War 56xx Woodshire Dr
13A043356 18:05:27 1 Meet 70xx Washington Center Rd W
13A043357 18:16:50 22i Juv Invest 35xx Fritcha Ave
13A043358 18:27:43 40a Audible 92xx Conservation Way
13A043360 18:29:18 26pp Pinned 62xx Rothman Rd & Maplecrest Rd
13A043359 18:32:02 14s Serving War 14xx Kitch St
13A043361 18:34:49 911 Hang Up 71xx Snyder Rd
13A043362 19:01:56 911 Hang Up 93xx Garman Rd
13A043363 19:58:03 30 Traffic Stop 101xx Mayhew Rd & Clinton St N
13A043364 20:09:00 30 Traffic Stop 70xx Bluffton Rd
13A043365 20:24:57 36 Occupied Veh 78xx Airport Expressway & Branstra
13A043366 20:27:48 30 Traffic Stop 101xx Clinton St N & Mayhew Rd
13A043367 20:41:20 30 Traffic Stop 73xx Hessen Cassel Rd & Tillman Rd
13A043368 20:44:01 15 Assist 98xx Lower Huntington Rd & Airport
13A043369 20:46:28 30 Traffic Stop 118xx Marion Center Rd & Monroevil
13A043370 20:54:26 14s Serving War 72xx Moeller Rd
13A043371 21:02:36 30 Traffic Stop 99xx Marion Center Rd & Thompson R
13A043372 21:09:16 65t Suicide Thr 44xx Park Place Dr
13A043374 21:15:33 65a Suicide Att 29xx Walnut Run
13A043373 21:24:19 14s Serving War 2xx South St W
13A043375 22:05:00 14s Serving War 208xx Alliger Rd
13A043376 22:10:11 1 Meet 35xx Astoria Way
13A043377 22:36:18 122 Huntertown 150xx Old Lima Rd
13A043378 23:23:07 102,tx Threats 38xx Webster Rd S
13A043379 23:42:50 103 Unwanted 103xx Aboite Center Rd
13A043380 23:51:03 40a Audible 30xx Hillegas Rd